Wetterdaten: Sonntag, 19.10.2014
Datum Zeit Temp. A. Feuchte A. Luftdruck Regen Wind Richtung Richtung Sonnenschein ET UV Solar Taupunkt Windchill Windben Empfang
19.10.2014 00:00 7,5 C 88 % 1023,9 hPa 0,0 l/m 0,0 km/h (0 Bft) S-SW 195 0 min 0,000 mm 0,0 UV-I 0 W/m 5,6 C 7,5 C 0,0 km/h (0 Bft) 0,00 %
19.10.2014 00:15 7,3 C 88 % 1023,9 hPa 0,0 l/m 0,0 km/h (0 Bft) S-SW 195 0 min 0,000 mm 0,0 UV-I 0 W/m 5,4 C 7,3 C 0,0 km/h (0 Bft) 0,00 %
19.10.2014 00:30 7,2 C 88 % 1023,6 hPa 0,0 l/m 0,0 km/h (0 Bft) S-SW 194 0 min 0,000 mm 0,0 UV-I 0 W/m 5,3 C 7,2 C 0,0 km/h (0 Bft) 0,00 %
19.10.2014 00:45 7,3 C 88 % 1023,9 hPa 0,0 l/m 0,0 km/h (0 Bft) S-SW 196 0 min 0,000 mm 0,0 UV-I 0 W/m 5,4 C 7,3 C 0,0 km/h (0 Bft) 0,00 %
19.10.2014 01:00 7,4 C 88 % 1023,6 hPa 0,0 l/m 0,0 km/h (0 Bft) S 191 0 min 0,000 mm 0,0 UV-I 0 W/m 5,5 C 7,4 C 0,0 km/h (0 Bft) 0,00 %
19.10.2014 01:15 7,3 C 88 % 1023,8 hPa 0,3 l/m 0,0 km/h (0 Bft) S 189 0 min 0,000 mm 0,0 UV-I 0 W/m 5,4 C 7,3 C 0,0 km/h (0 Bft) 0,00 %
19.10.2014 01:30 7,1 C 88 % 1023,8 hPa 0,0 l/m 0,0 km/h (0 Bft) S 186 0 min 0,000 mm 0,0 UV-I 0 W/m 5,2 C 7,1 C 0,0 km/h (0 Bft) 0,00 %
19.10.2014 01:45 7,1 C 88 % 1023,7 hPa 0,0 l/m 0,0 km/h (0 Bft) S 173 0 min 0,000 mm 0,0 UV-I 0 W/m 5,2 C 7,1 C 0,0 km/h (0 Bft) 0,00 %
19.10.2014 02:00 7,2 C 88 % 1023,8 hPa 0,0 l/m 0,0 km/h (0 Bft) S 187 0 min 0,000 mm 0,0 UV-I 0 W/m 5,3 C 7,2 C 0,0 km/h (0 Bft) 0,00 %
19.10.2014 02:15 7,2 C 88 % 1023,8 hPa 0,0 l/m 0,0 km/h (0 Bft) S 191 0 min 0,000 mm 0,0 UV-I 0 W/m 5,3 C 7,2 C 0,0 km/h (0 Bft) 0,00 %
19.10.2014 02:30 7,3 C 88 % 1023,9 hPa 0,0 l/m 0,0 km/h (0 Bft) S 180 0 min 0,000 mm 0,0 UV-I 0 W/m 5,4 C 7,3 C 0,0 km/h (0 Bft) 0,00 %
19.10.2014 02:45 7,2 C 88 % 1023,8 hPa 0,0 l/m 0,0 km/h (0 Bft) S 186 0 min 0,000 mm 0,0 UV-I 0 W/m 5,3 C 7,2 C 0,0 km/h (0 Bft) 0,00 %
19.10.2014 03:00 7,4 C 87 % 1023,4 hPa 0,0 l/m 0,0 km/h (0 Bft) S 177 0 min 0,000 mm 0,0 UV-I 0 W/m 5,4 C 7,4 C 0,0 km/h (0 Bft) 0,00 %
19.10.2014 03:15 7,7 C 87 % 1023,5 hPa 0,0 l/m 0,0 km/h (0 Bft) S 177 0 min 0,000 mm 0,0 UV-I 0 W/m 5,7 C 7,7 C 0,0 km/h (0 Bft) 0,00 %
19.10.2014 03:30 8,1 C 86 % 1023,6 hPa 0,0 l/m 0,0 km/h (0 Bft) S 177 0 min 0,000 mm 0,0 UV-I 0 W/m 5,9 C 8,1 C 0,0 km/h (0 Bft) 0,00 %
19.10.2014 03:45 8,5 C 86 % 1023,1 hPa 0,0 l/m 0,0 km/h (0 Bft) S 177 0 min 0,000 mm 0,0 UV-I 0 W/m 6,3 C 8,5 C 0,0 km/h (0 Bft) 0,00 %
19.10.2014 04:00 8,8 C 87 % 1023,0 hPa 0,0 l/m 0,0 km/h (0 Bft) S-SW 194 0 min 0,000 mm 0,0 UV-I 0 W/m 6,8 C 8,8 C 0,0 km/h (0 Bft) 0,00 %
19.10.2014 04:15 9,0 C 87 % 1023,1 hPa 0,0 l/m 0,0 km/h (0 Bft) S-SW 194 0 min 0,000 mm 0,0 UV-I 0 W/m 7,0 C 9,0 C 0,0 km/h (0 Bft) 0,00 %
19.10.2014 04:30 9,1 C 87 % 1022,9 hPa 0,0 l/m 0,0 km/h (0 Bft) S 174 0 min 0,000 mm 0,0 UV-I 0 W/m 7,1 C 9,1 C 0,0 km/h (0 Bft) 0,00 %
19.10.2014 04:45 9,2 C 86 % 1022,6 hPa 0,0 l/m 0,0 km/h (0 Bft) S 181 0 min 0,000 mm 0,0 UV-I 0 W/m 7,0 C 9,2 C 0,0 km/h (0 Bft) 0,00 %
19.10.2014 05:00 9,4 C 86 % 1023,0 hPa 0,0 l/m 0,0 km/h (0 Bft) W-SW 238 0 min 0,000 mm 0,0 UV-I 0 W/m 7,2 C 9,4 C 0,0 km/h (0 Bft) 0,00 %
19.10.2014 05:15 9,5 C 86 % 1022,8 hPa 0,0 l/m 0,0 km/h (0 Bft) W-SW 237 0 min 0,000 mm 0,0 UV-I 0 W/m 7,3 C 9,5 C 0,0 km/h (0 Bft) 0,00 %
19.10.2014 05:30 9,4 C 87 % 1022,8 hPa 0,0 l/m 0,0 km/h (0 Bft) S 173 0 min 0,000 mm 0,0 UV-I 0 W/m 7,3 C 9,4 C 0,0 km/h (0 Bft) 0,00 %
19.10.2014 05:45 9,4 C 87 % 1022,9 hPa 0,0 l/m 0,0 km/h (0 Bft) SW 227 0 min 0,000 mm 0,0 UV-I 0 W/m 7,3 C 9,4 C 0,0 km/h (0 Bft) 0,00 %
19.10.2014 06:00 9,2 C 87 % 1023,0 hPa 0,0 l/m 0,0 km/h (0 Bft) S 178 0 min 0,000 mm 0,0 UV-I 0 W/m 7,2 C 9,2 C 0,0 km/h (0 Bft) 0,00 %
19.10.2014 06:15 9,2 C 87 % 1022,7 hPa 0,0 l/m 0,0 km/h (0 Bft) S-SW 198 0 min 0,000 mm 0,0 UV-I 0 W/m 7,2 C 9,2 C 0,0 km/h (0 Bft) 0,00 %
19.10.2014 06:30 9,2 C 87 % 1022,5 hPa 0,0 l/m 0,0 km/h (0 Bft) S 175 0 min 0,000 mm 0,0 UV-I 0 W/m 7,2 C 9,2 C 0,0 km/h (0 Bft) 0,00 %
19.10.2014 06:45 9,1 C 87 % 1022,7 hPa 0,0 l/m 0,0 km/h (0 Bft) SW 232 0 min 0,000 mm 0,0 UV-I 0 W/m 7,1 C 9,1 C 0,0 km/h (0 Bft) 0,00 %
19.10.2014 07:00 9,0 C 86 % 1022,6 hPa 0,0 l/m 0,0 km/h (0 Bft) W-SW 252 0 min 0,000 mm 0,0 UV-I 0 W/m 6,8 C 9,0 C 0,0 km/h (0 Bft) 0,00 %
19.10.2014 07:15 9,0 C 87 % 1022,8 hPa 0,0 l/m 0,0 km/h (0 Bft) N-NW 340 0 min 0,000 mm 0,0 UV-I 0 W/m 7,0 C 9,0 C 0,0 km/h (0 Bft) 0,00 %
19.10.2014 07:30 9,0 C 86 % 1022,9 hPa 0,0 l/m 0,0 km/h (0 Bft) N-NW 346 0 min 0,000 mm 0,0 UV-I 0 W/m 6,8 C 9,0 C 0,0 km/h (0 Bft) 0,00 %
19.10.2014 07:45 9,1 C 87 % 1023,0 hPa 0,0 l/m 0,0 km/h (0 Bft) N-NW 346 0 min 0,000 mm 0,0 UV-I 1 W/m 7,1 C 9,1 C 0,0 km/h (0 Bft) 0,00 %
19.10.2014 08:00 9,2 C 87 % 1023,3 hPa 0,0 l/m 0,0 km/h (0 Bft) W-SW 256 0 min 0,000 mm 0,0 UV-I 12 W/m 7,2 C 9,2 C 0,0 km/h (0 Bft) 0,00 %
19.10.2014 08:15 9,2 C 87 % 1023,3 hPa 0,0 l/m 0,0 km/h (0 Bft) SW 221 0 min 0,000 mm 1,0 UV-I 20 W/m 7,2 C 9,2 C 0,0 km/h (0 Bft) 0,00 %
19.10.2014 08:30 9,4 C 86 % 1023,1 hPa 0,0 l/m 0,0 km/h (0 Bft) S-SW 210 0 min 0,000 mm 1,0 UV-I 34 W/m 7,2 C 9,4 C 0,0 km/h (0 Bft) 0,00 %
19.10.2014 08:45 9,3 C 86 % 1023,3 hPa 0,0 l/m 0,0 km/h (0 Bft) SW 223 0 min 0,000 mm 1,0 UV-I 51 W/m 7,1 C 9,3 C 0,0 km/h (0 Bft) 0,00 %
19.10.2014 09:00 9,6 C 86 % 1023,2 hPa 0,0 l/m 0,0 km/h (0 Bft) S 187 0 min 0,000 mm 1,0 UV-I 66 W/m 7,4 C 9,6 C 0,0 km/h (0 Bft) 0,00 %
19.10.2014 09:15 9,8 C 86 % 1023,4 hPa 0,0 l/m 0,0 km/h (0 Bft) S 187 0 min 0,000 mm 1,0 UV-I 71 W/m 7,6 C 9,8 C 0,0 km/h (0 Bft) 0,00 %
19.10.2014 09:30 9,9 C 86 % 1023,5 hPa 0,0 l/m 0,0 km/h (0 Bft) SW 215 0 min 0,000 mm 1,0 UV-I 88 W/m 7,7 C 9,9 C 0,0 km/h (0 Bft) 0,00 %
19.10.2014 09:45 10,0 C 86 % 1023,3 hPa 0,0 l/m 0,0 km/h (0 Bft) SW 220 0 min 0,000 mm 2,0 UV-I 89 W/m 7,8 C 10,0 C 0,0 km/h (0 Bft) 0,00 %
19.10.2014 10:00 10,5 C 85 % 1023,3 hPa 0,0 l/m 0,0 km/h (0 Bft) S-SW 198 0 min 0,000 mm 2,0 UV-I 157 W/m 8,1 C 10,5 C 0,0 km/h (0 Bft) 0,00 %
19.10.2014 10:15 10,4 C 86 % 1023,2 hPa 0,0 l/m 0,0 km/h (0 Bft) W-SW 251 0 min 0,000 mm 2,0 UV-I 156 W/m 8,2 C 10,4 C 0,0 km/h (0 Bft) 0,00 %
19.10.2014 10:30 10,8 C 85 % 1023,0 hPa 0,0 l/m 0,0 km/h (0 Bft) SW 232 0 min 0,000 mm 2,0 UV-I 145 W/m 8,4 C 10,8 C 0,0 km/h (0 Bft) 0,00 %
19.10.2014 10:45 10,7 C 85 % 1023,0 hPa 0,0 l/m 0,0 km/h (0 Bft) W-SW 255 0 min 0,000 mm 2,0 UV-I 148 W/m 8,3 C 10,7 C 0,0 km/h (0 Bft) 0,00 %
19.10.2014 11:00 10,7 C 85 % 1022,8 hPa 0,0 l/m 0,0 km/h (0 Bft) W-SW 256 0 min 0,000 mm 2,0 UV-I 133 W/m 8,3 C 10,7 C 0,0 km/h (0 Bft) 0,00 %
19.10.2014 11:15 11,0 C 85 % 1022,8 hPa 0,0 l/m 0,0 km/h (0 Bft) W-NW 295 0 min 0,000 mm 2,0 UV-I 151 W/m 8,6 C 11,0 C 0,0 km/h (0 Bft) 0,00 %
19.10.2014 11:30 11,1 C 84 % 1022,9 hPa 0,0 l/m 0,0 km/h (0 Bft) W-SW 256 0 min 0,000 mm 2,0 UV-I 161 W/m 8,5 C 11,1 C 0,0 km/h (0 Bft) 0,00 %
19.10.2014 11:45 11,4 C 81 % 1022,7 hPa 0,0 l/m 0,0 km/h (0 Bft) W-SW 256 0 min 0,000 mm 2,0 UV-I 170 W/m 8,3 C 11,4 C 0,0 km/h (0 Bft) 0,00 %
19.10.2014 12:00 11,8 C 80 % 1022,5 hPa 0,0 l/m 0,0 km/h (0 Bft) W-SW 256 0 min 0,000 mm 2,0 UV-I 196 W/m 8,5 C 11,8 C 0,0 km/h (0 Bft) 0,00 %
19.10.2014 12:15 12,3 C 79 % 1022,4 hPa 0,0 l/m 0,0 km/h (0 Bft) O-SO 114 0 min 0,000 mm 2,0 UV-I 212 W/m 8,8 C 12,3 C 0,0 km/h (0 Bft) 0,00 %
19.10.2014 12:30 13,0 C 75 % 1021,8 hPa 0,0 l/m 0,0 km/h (0 Bft) S 178 0 min 0,000 mm 2,0 UV-I 275 W/m 8,7 C 13,0 C 0,0 km/h (0 Bft) 0,00 %
19.10.2014 12:45 13,2 C 75 % 1021,7 hPa 0,0 l/m 0,0 km/h (0 Bft) W-NW 284 0 min 0,000 mm 3,0 UV-I 271 W/m 8,9 C 13,2 C 0,0 km/h (0 Bft) 0,00 %
19.10.2014 13:00 13,6 C 74 % 1020,9 hPa 0,0 l/m 0,7 km/h (0 Bft) O-SO 107 0 min 0,000 mm 2,0 UV-I 208 W/m 9,1 C 13,6 C 4,0 km/h (1 Bft) 0,00 %
19.10.2014 13:15 13,5 C 75 % 1021,0 hPa 0,0 l/m 0,0 km/h (0 Bft) SO 146 0 min 0,000 mm 2,0 UV-I 169 W/m 9,2 C 13,5 C 0,0 km/h (0 Bft) 0,00 %
19.10.2014 13:30 13,7 C 76 % 1020,6 hPa 0,0 l/m 1,4 km/h (1 Bft) NW 314 15 min 0,000 mm 2,0 UV-I 410 W/m 9,5 C 13,7 C 4,0 km/h (1 Bft) 0,00 %
19.10.2014 13:45 13,6 C 77 % 1020,4 hPa 0,0 l/m 1,4 km/h (1 Bft) O 85 15 min 0,000 mm 2,0 UV-I 410 W/m 9,6 C 13,6 C 4,0 km/h (1 Bft) 0,00 %
19.10.2014 14:00 13,8 C 77 % 1020,0 hPa 0,0 l/m 0,7 km/h (0 Bft) N-NO 33 15 min 0,000 mm 2,0 UV-I 421 W/m 9,8 C 13,8 C 4,0 km/h (1 Bft) 0,00 %
19.10.2014 14:15 13,9 C 77 % 1019,9 hPa 0,0 l/m 0,4 km/h (0 Bft) N-NW 335 15 min 0,000 mm 2,0 UV-I 400 W/m 9,9 C 13,9 C 4,0 km/h (1 Bft) 0,00 %
19.10.2014 14:30 14,0 C 76 % 1019,9 hPa 0,0 l/m 0,4 km/h (0 Bft) SO 140 15 min 0,000 mm 2,0 UV-I 399 W/m 9,8 C 14,0 C 4,0 km/h (1 Bft) 0,00 %
19.10.2014 14:45 13,9 C 77 % 1019,8 hPa 0,0 l/m 0,4 km/h (0 Bft) S 178 15 min 0,000 mm 2,0 UV-I 389 W/m 9,9 C 13,9 C 4,0 km/h (1 Bft) 0,00 %
19.10.2014 15:00 13,8 C 78 % 1019,8 hPa 0,0 l/m 0,0 km/h (0 Bft) NW 326 15 min 0,000 mm 2,0 UV-I 388 W/m 10,0 C 13,8 C 0,0 km/h (0 Bft) 0,00 %
19.10.2014 15:15 13,8 C 78 % 1019,6 hPa 0,0 l/m 0,0 km/h (0 Bft) O-NO 75 15 min 0,000 mm 1,0 UV-I 399 W/m 10,0 C 13,8 C 0,0 km/h (0 Bft) 0,00 %
19.10.2014 15:30 13,9 C 78 % 1019,7 hPa 0,0 l/m 0,0 km/h (0 Bft) NW 305 15 min 0,000 mm 1,0 UV-I 370 W/m 10,1 C 13,9 C 0,0 km/h (0 Bft) 0,00 %
19.10.2014 15:45 14,1 C 78 % 1019,4 hPa 0,0 l/m 0,0 km/h (0 Bft) O-NO 59 15 min 0,000 mm 1,0 UV-I 320 W/m 10,3 C 14,1 C 0,0 km/h (0 Bft) 0,00 %
19.10.2014 16:00 14,4 C 77 % 1019,0 hPa 0,0 l/m 0,0 km/h (0 Bft) N-NW 342 15 min 0,000 mm 1,0 UV-I 310 W/m 10,4 C 14,4 C 0,0 km/h (0 Bft) 0,00 %
19.10.2014 16:15 14,8 C 75 % 1018,9 hPa 0,0 l/m 0,0 km/h (0 Bft) S 181 15 min 0,000 mm 1,0 UV-I 305 W/m 10,4 C 14,8 C 0,0 km/h (0 Bft) 0,00 %
19.10.2014 16:30 15,0 C 74 % 1018,8 hPa 0,0 l/m 0,0 km/h (0 Bft) O-SO 111 15 min 0,000 mm 1,0 UV-I 322 W/m 10,4 C 15,0 C 0,0 km/h (0 Bft) 0,00 %
19.10.2014 16:45 15,0 C 74 % 1018,9 hPa 0,0 l/m 0,0 km/h (0 Bft) O-SO 111 15 min 0,000 mm 1,0 UV-I 310 W/m 10,4 C 15,0 C 0,0 km/h (0 Bft) 0,00 %
19.10.2014 17:00 15,2 C 72 % 1018,7 hPa 0,0 l/m 0,0 km/h (0 Bft) W-SW 256 15 min 0,000 mm 1,0 UV-I 322 W/m 10,2 C 15,2 C 0,0 km/h (0 Bft) 0,00 %
19.10.2014 17:15 15,5 C 71 % 1018,9 hPa 0,0 l/m 0,0 km/h (0 Bft) W-SW 255 15 min 0,000 mm 0,0 UV-I 305 W/m 10,3 C 15,5 C 0,0 km/h (0 Bft) 0,00 %
19.10.2014 17:30 15,6 C 71 % 1018,9 hPa 0,0 l/m 0,0 km/h (0 Bft) S-SO 153 15 min 0,000 mm 0,0 UV-I 211 W/m 10,4 C 15,6 C 0,0 km/h (0 Bft) 0,00 %
19.10.2014 17:45 14,7 C 75 % 1019,2 hPa 0,0 l/m 0,0 km/h (0 Bft) SO 129 15 min 0,000 mm 0,0 UV-I 92 W/m 10,3 C 14,7 C 0,0 km/h (0 Bft) 0,00 %
19.10.2014 18:00 13,5 C 79 % 1019,4 hPa 0,0 l/m 0,0 km/h (0 Bft) S 186 0 min 0,000 mm 0,0 UV-I 7 W/m 9,9 C 13,5 C 0,0 km/h (0 Bft) 0,00 %
19.10.2014 18:15 12,6 C 81 % 1019,6 hPa 0,0 l/m 0,0 km/h (0 Bft) SO 138 0 min 0,000 mm 0,0 UV-I 0 W/m 9,4 C 12,6 C 0,0 km/h (0 Bft) 0,00 %
19.10.2014 18:30 12,2 C 81 % 1020,0 hPa 0,0 l/m 0,0 km/h (0 Bft) S 182 0 min 0,000 mm 0,0 UV-I 0 W/m 9,0 C 12,2 C 0,0 km/h (0 Bft) 0,00 %
19.10.2014 18:45 11,8 C 82 % 1019,9 hPa 0,0 l/m 0,0 km/h (0 Bft) S-SW 192 0 min 0,000 mm 0,0 UV-I 0 W/m 8,8 C 11,8 C 0,0 km/h (0 Bft) 0,00 %
19.10.2014 19:00 11,4 C 84 % 1019,9 hPa 0,0 l/m 0,0 km/h (0 Bft) S 191 0 min 0,000 mm 0,0 UV-I 0 W/m 8,8 C 11,4 C 0,0 km/h (0 Bft) 0,00 %
19.10.2014 19:15 11,2 C 84 % 1020,1 hPa 0,0 l/m 0,0 km/h (0 Bft) S-SW 196 0 min 0,000 mm 0,0 UV-I 0 W/m 8,6 C 11,2 C 0,0 km/h (0 Bft) 0,00 %
19.10.2014 19:30 11,0 C 84 % 1019,9 hPa 0,0 l/m 0,0 km/h (0 Bft) S-SW 192 0 min 0,000 mm 0,0 UV-I 0 W/m 8,4 C 11,0 C 0,0 km/h (0 Bft) 0,00 %
19.10.2014 19:45 10,7 C 84 % 1019,9 hPa 0,0 l/m 0,0 km/h (0 Bft) S-SW 192 0 min 0,000 mm 0,0 UV-I 0 W/m 8,1 C 10,7 C 0,0 km/h (0 Bft) 0,00 %
19.10.2014 20:00 10,6 C 85 % 1019,7 hPa 0,0 l/m 0,0 km/h (0 Bft) S 177 0 min 0,000 mm 0,0 UV-I 0 W/m 8,2 C 10,6 C 0,0 km/h (0 Bft) 0,00 %
19.10.2014 20:15 10,6 C 85 % 1019,7 hPa 0,0 l/m 0,0 km/h (0 Bft) NO 56 0 min 0,000 mm 0,0 UV-I 0 W/m 8,2 C 10,6 C 0,0 km/h (0 Bft) 0,00 %
19.10.2014 20:30 10,6 C 85 % 1019,8 hPa 0,0 l/m 0,4 km/h (0 Bft) S 169 0 min 0,000 mm 0,0 UV-I 0 W/m 8,2 C 10,6 C 4,0 km/h (1 Bft) 0,00 %
19.10.2014 20:45 10,4 C 86 % 1020,0 hPa 0,0 l/m 0,0 km/h (0 Bft) SW 227 0 min 0,000 mm 0,0 UV-I 0 W/m 8,2 C 10,4 C 0,0 km/h (0 Bft) 0,00 %
19.10.2014 21:00 10,0 C 86 % 1020,3 hPa 0,0 l/m 0,0 km/h (0 Bft) SW 227 0 min 0,000 mm 0,0 UV-I 0 W/m 7,8 C 10,0 C 0,0 km/h (0 Bft) 0,00 %
19.10.2014 21:15 9,7 C 86 % 1020,3 hPa 0,0 l/m 0,0 km/h (0 Bft) S 174 0 min 0,000 mm 0,0 UV-I 0 W/m 7,5 C 9,7 C 0,0 km/h (0 Bft) 0,00 %
19.10.2014 21:30 9,7 C 86 % 1020,3 hPa 0,0 l/m 0,0 km/h (0 Bft) S 179 0 min 0,000 mm 0,0 UV-I 0 W/m 7,5 C 9,7 C 0,0 km/h (0 Bft) 0,00 %
19.10.2014 21:45 9,6 C 86 % 1020,4 hPa 0,0 l/m 0,0 km/h (0 Bft) S 191 0 min 0,000 mm 0,0 UV-I 0 W/m 7,4 C 9,6 C 0,0 km/h (0 Bft) 0,00 %
19.10.2014 22:00 9,6 C 86 % 1020,5 hPa 0,0 l/m 0,0 km/h (0 Bft) S-SO 168 0 min 0,000 mm 0,0 UV-I 0 W/m 7,4 C 9,6 C 0,0 km/h (0 Bft) 0,00 %
19.10.2014 22:15 9,5 C 86 % 1020,4 hPa 0,0 l/m 0,0 km/h (0 Bft) S 191 0 min 0,000 mm 0,0 UV-I 0 W/m 7,3 C 9,5 C 0,0 km/h (0 Bft) 0,00 %
19.10.2014 22:30 9,5 C 87 % 1020,6 hPa 0,0 l/m 0,0 km/h (0 Bft) S 179 0 min 0,000 mm 0,0 UV-I 0 W/m 7,4 C 9,5 C 0,0 km/h (0 Bft) 0,00 %
19.10.2014 22:45 9,2 C 87 % 1020,3 hPa 0,0 l/m 0,0 km/h (0 Bft) S 191 0 min 0,000 mm 0,0 UV-I 0 W/m 7,2 C 9,2 C 0,0 km/h (0 Bft) 0,00 %
19.10.2014 23:00 9,2 C 87 % 1020,4 hPa 0,0 l/m 0,0 km/h (0 Bft) S-SW 193 0 min 0,000 mm 0,0 UV-I 0 W/m 7,2 C 9,2 C 0,0 km/h (0 Bft) 0,00 %
19.10.2014 23:15 9,0 C 86 % 1020,1 hPa 0,0 l/m 0,0 km/h (0 Bft) S-SW 195 0 min 0,000 mm 0,0 UV-I 0 W/m 6,8 C 9,0 C 0,0 km/h (0 Bft) 0,00 %
19.10.2014 23:30 8,9 C 86 % 1020,2 hPa 0,0 l/m 0,0 km/h (0 Bft) S-SW 201 0 min 0,000 mm 0,0 UV-I 0 W/m 6,7 C 8,9 C 0,0 km/h (0 Bft) 0,00 %
19.10.2014 23:45 8,9 C 86 % 1019,9 hPa 0,0 l/m 0,0 km/h (0 Bft) SO 124 0 min 0,000 mm 0,0 UV-I 0 W/m 6,7 C 8,9 C 0,0 km/h (0 Bft) 0,00 %
_ Min-Zeit 01:30 17:15 17:00 - 00:00 - - - - - - 01:30 01:30 00:00 00:00
Minimum _ 7,1 C 71 % 1018,7 hPa - 0,0 km/h (0 Bft) - - - - - - 5,2 C 7,1 C 0,0 km/h (0 Bft) 0,00 %
_ Max-Zeit 17:30 00:00 00:00 01:15 13:30 - - 13:30 00:00 12:45 14:00 16:00 17:30 13:00 00:00
Maximum _ 15,6 C 88 % 1023,9 hPa 0,3 l/m 1,4 km/h
NW (1 Bft)
- - 15 min 0,000 mm 3,0 UV-I 421 W/m 10,4 C 15,6 C 4,0 km/h
O-SO (1 Bft)
0,00 %
Durchschnitt _ 10,6 C 83 % 1021,6 hPa #0,3 l/m 0,1 km/h (0 Bft) O - #4:30 h #0,000 mm 1,6 UV-I 216 W/m 7,9 C 10,6 C 0,3 km/h (0 Bft) 0,00 %